Wind_Speed
28 23 23 21 28 32 27 33 36 40 41 39 37 37 36 33 30 26 21 17 15 13 14 10 7 9 10 8 8 9 10 11 8 5 4 3 7 11 12 10 11 10 10
28 27 28 22 21 19 21 24 26 31 30 35 37 37 36 33 30 23 19 17 16 17 10 7 12 11 10 10 11 11 11 10 7 3 4 6 8 11 13 10 8 10 12
24 29 25 26 20 19 15 14 15 26 30 33 33 34 35 33 27 22 20 20 16 15 13 14 15 14 12 12 11 12 12 9 7 4 6 9 9 10 12 12 11 12 12
24 26 20 21 21 17 12 13 17 18 21 23 30 30 30 29 26 25 21 11 18 20 19 17 18 17 15 15 14 12 9 8 7 6 8 9 8 8 10 11 13 12 12
23 22 17 14 12 10 12 15 17 20 24 29 30 28 28 32 33 25 20 26 22 22 20 19 19 17 16 14 13 10 9 8 7 9 7 6 7 5 6 6 10 13 14
22 20 17 18 16 13 10 11 14 17 19 18 19 23 26 32 29 29 25 28 28 25 22 19 16 16 15 13 11 10 10 10 11 11 10 10 9 6 7 8 9 7 4
23 19 16 13 12 9 9 10 11 12 13 15 16 20 21 21 21 22 22 25 25 22 21 19 18 15 14 11 9 9 9 9 9 10 11 11 8 7 8 9 10 10 8
21 18 15 14 13 10 8 8 7 7 9 11 12 12 11 13 18 19 21 21 21 21 20 19 18 16 12 11 11 10 10 9 9 7 9 8 9 10 12 13 11 13 13
21 18 13 11 11 9 7 6 5 5 5 5 6 9 12 13 14 17 20 21 20 19 18 17 15 13 12 11 10 10 9 7 7 5 5 7 8 9 8 10 11 11 6
18 16 14 11 10 10 6 4 5 4 4 4 5 4 6 9 13 14 17 18 19 17 15 14 13 12 12 11 8 7 7 8 8 8 7 8 9 8 7 8 10 11 9
14 14 14 11 10 8 5 3 3 2 1 3 3 5 6 8 11 14 14 17 18 19 18 16 15 14 14 10 8 8 7 6 7 8 9 9 9 9 9 8 8 9 12
15 15 14 11 9 7 5 4 3 2 1 2 4 6 6 8 9 14 16 13 13 15 17 16 16 15 13 11 10 8 8 8 9 10 11 10 10 10 9 9 9 9 10
15 15 13 11 9 8 6 4 4 2 1 3 6 7 9 9 11 13 15 16 13 14 15 15 14 14 13 11 9 9 9 11 12 13 14 12 10 9 9 9 9 10 9
14 14 11 10 9 8 8 6 4 3 2 4 6 9 10 10 12 15 16 16 19 18 14 15 16 15 13 13 12 11 12 14 16 17 16 11 10 11 9 9 8 9 9
12 12 12 10 9 7 6 6 5 4 6 5 6 7 8 11 13 14 16 18 20 22 21 19 19 20 18 17 15 15 16 17 17 16 16 15 13 11 11 9 9 8 9
11 13 11 10 10 10 10 8 6 7 8 9 11 12 13 11 12 10 10 13 15 16 19 23 22 24 24 24 21 20 19 18 17 17 18 15 16 13 12 10 9 8 9
15 14 12 11 10 9 8 9 13 14 11 8 8 9 10 13 15 15 16 12 12 14 18 20 21 23 23 24 23 24 22 19 17 16 15 16 14 14 13 11 9 11 9
7 8 9 11 12 12 11 9 9 10 13 16 12 11 11 9 9 11 13 12 16 17 17 20 22 22 24 25 26 25 21 17 17 18 17 15 16 16 16 16 15 12 10
4 4 6 7 9 10 11 10 10 11 11 13 14 13 11 12 11 11 10 14 17 20 22 23 23 24 24 24 24 22 18 16 17 18 18 17 17 18 17 17 18 14 12
3 4 4 5 5 6 7 8 9 10 11 11 11 13 16 14 12 13 12 13 15 16 22 24 24 24 23 23 23 21 18 17 18 18 19 19 17 18 17 16 15 17 21
5 5 5 7 8 9 10 10 9 10 11 12 13 13 11 13 15 14 14 14 14 14 16 18 18 19 20 20 19 18 20 19 20 20 19 19 17 15 16 16 17 17 21
6 6 7 7 7 7 8 8 10 11 12 13 14 14 13 12 11 11 11 11 10 8 8 9 9 10 12 13 14 14 15 16 15 15 16 16 15 15 16 16 17 19 18
8 9 9 8 8 8 8 9 9 10 11 12 13 15 14 13 12 12 12 11 11 9 7 6 6 5 6 6 6 7 9 10 10 9 11 12 13 14 15 16 18 19 19
11 10 10 10 9 9 9 9 10 10 11 12 13 14 14 13 12 12 12 13 12 12 11 9 7 6 4 4 4 5 5 6 7 8 9 10 11 12 12 13 14 16 17
13 13 12 12 12 11 11 11 12 12 12 13 14 14 14 14 15 15 13 13 13 13 10 7 7 8 9 9 8 7 7 7 6 7 8 9 10 10 11 11 12 12 13
15 14 14 14 14 13 14 14 14 14 15 15 14 14 15 16 14 15 14 14 13 11 8 7 8 10 10 10 9 10 11 11 12 12 12 12 12 11 10 11 12 12 13
Wind_Direction
121 139 157 134 167 187 174 184 197 188 191 189 189 189 189 188 184 181 186 183 177 173 173 171 174 218 222 207 196 185 183 192 194 195 221 295 312 331 330 327 320 304 290
140 138 128 128 129 152 163 161 176 179 188 187 188 190 187 186 184 187 192 190 180 185 186 227 226 214 204 199 196 192 196 198 208 233 261 289 311 316 306 301 296 294 285
142 138 138 143 152 155 174 173 157 169 175 184 188 189 188 186 185 195 198 202 207 221 217 221 210 208 199 197 201 194 187 197 206 223 271 297 293 297 304 306 301 288 287
143 141 146 149 156 164 183 190 185 187 203 199 189 187 187 193 203 200 202 224 233 219 206 200 205 202 206 200 199 200 191 193 202 210 236 261 269 285 300 312 313 304 294
105 124 143 152 171 186 198 203 211 214 216 213 216 210 216 219 207 211 217 215 199 189 184 189 197 202 205 201 202 202 201 203 216 219 217 247 260 283 303 311 297 298 298
94 101 115 129 140 150 153 168 183 189 200 210 213 216 218 217 217 210 206 195 189 189 182 187 193 196 195 198 203 208 217 216 215 212 209 224 239 266 280 282 277 286 295
81 87 95 107 113 123 139 155 157 168 177 184 190 197 193 187 183 185 185 187 187 187 187 186 185 191 194 194 190 195 208 216 226 228 230 226 239 242 251 260 269 273 262
80 81 83 92 102 109 121 129 141 165 183 186 189 191 175 182 179 184 187 189 187 187 185 189 192 191 195 199 196 208 214 219 227 240 250 247 247 247 257 264 268 271 272
69 69 73 86 92 96 106 116 114 124 134 155 174 186 188 193 179 184 188 185 182 182 184 189 193 193 194 194 202 207 216 226 227 234 251 253 256 260 265 265 257 258 272
68 73 74 63 67 81 81 83 103 141 157 190 197 215 224 216 203 194 201 189 180 181 185 187 190 194 189 194 201 209 221 228 222 229 252 251 247 250 255 243 242 240 235
70 72 71 71 73 73 85 70 69 83 143 203 218 214 223 221 215 205 202 201 198 192 193 190 194 193 192 195 204 207 221 227 224 246 259 257 254 250 251 248 246 243 240
72 69 65 65 65 66 56 58 60 54 166 230 219 234 234 237 224 224 217 213 213 213 205 203 201 200 205 214 222 226 215 223 224 237 256 258 263 262 259 259 255 253 243
61 57 55 54 51 48 51 65 64 41 318 287 274 267 262 252 245 240 236 225 222 218 219 219 212 207 211 217 226 230 210 219 231 239 247 252 260 265 264 258 262 264 260
52 51 49 48 42 34 26 22 5 339 288 272 267 268 274 272 266 259 251 241 233 230 220 217 216 215 224 228 223 224 228 230 236 240 248 250 245 247 264 255 254 262 262
44 46 43 38 32 25 17 356 344 328 333 324 307 293 276 278 279 270 257 248 244 239 232 226 218 219 217 218 223 222 223 230 231 235 238 242 241 242 259 258 249 244 256
23 26 27 22 24 26 18 6 9 357 330 311 294 286 281 281 291 291 275 266 257 250 233 228 223 222 221 222 221 230 229 227 232 235 235 241 244 239 246 243 242 250 251
354 357 4 12 18 16 9 357 343 331 330 329 338 328 301 288 280 283 279 274 263 247 233 231 227 225 229 235 231 229 225 222 227 233 234 241 244 242 237 229 234 245 253
326 337 343 347 348 350 354 350 343 337 333 329 329 323 317 319 313 290 283 274 258 253 246 236 236 236 239 239 235 230 228 224 220 227 235 241 246 244 239 234 233 236 252
308 322 313 324 328 333 333 339 337 335 334 328 326 326 322 310 298 294 290 265 251 255 260 252 253 253 252 249 245 242 237 237 234 232 234 238 242 243 243 244 246 247 252
287 298 313 316 318 325 329 330 331 332 328 329 330 333 334 336 327 322 311 300 290 277 263 260 259 254 255 255 256 255 249 243 240 239 241 242 244 240 242 249 252 248 248
293 301 310 315 319 320 321 323 323 320 319 320 322 327 330 330 337 329 323 316 312 305 297 287 277 268 268 266 262 257 251 246 245 245 245 248 250 248 249 254 259 257 253
264 276 287 295 300 302 306 310 314 317 319 320 322 324 327 326 329 325 333 336 336 333 326 317 306 294 280 270 261 252 248 246 244 240 242 246 249 251 250 250 251 252 254
261 265 270 274 280 285 285 294 299 305 310 314 317 320 323 323 320 316 318 317 317 322 326 333 324 307 294 284 266 254 249 247 247 243 242 244 242 242 246 248 248 251 250
266 269 270 272 273 277 278 288 293 297 301 302 305 306 307 308 309 310 313 313 312 310 307 296 289 285 284 259 268 275 268 251 253 251 241 243 247 246 244 244 249 253 256
265 267 265 265 267 270 275 281 289 293 295 298 300 301 302 300 298 300 299 301 308 311 303 291 284 283 282 268 259 254 245 241 236 237 244 241 242 244 245 246 251 255 256
263 266 266 266 266 271 278 285 288 292 296 300 301 297 296 298 294 296 295 297 305 302 295 288 287 294 291 281 272 265 261 258 259 257 257 253 247 243 245 252 255 254 257
Height
713 717 721 723 732 743 747 754 760 762 767 776 782 789 793 798 802 805 810 814 815 819 823 824 827 832 835 837 840 841 843 844 845 847 849 851 852 851 850 850 850 851 849
715 722 723 729 735 743 747 753 756 760 769 775 780 786 790 794 797 800 805 809 808 815 815 820 827 831 833 835 837 839 842 843 843 846 847 847 848 849 849 847 845 847 845
720 724 730 734 741 745 751 755 757 762 768 774 779 783 786 790 793 797 802 805 805 813 811 819 824 829 831 833 835 837 839 840 840 842 845 846 846 847 847 844 844 845 845
723 728 733 737 741 747 752 755 760 765 769 773 776 779 783 787 790 794 798 797 805 808 811 813 821 825 828 830 831 834 834 836 838 839 843 843 844 845 845 843 842 841 840
728 734 739 743 748 750 755 757 761 765 769 770 773 776 779 782 783 785 787 796 797 804 808 812 818 821 825 827 829 830 831 834 836 839 841 842 842 840 840 840 841 840 837
735 738 743 747 750 754 757 759 761 764 767 769 771 773 777 778 779 780 781 789 794 800 803 809 815 818 821 824 824 826 827 829 832 833 833 836 837 837 839 839 838 838 835
743 747 750 753 754 757 759 762 763 765 768 770 770 773 775 777 778 779 781 786 792 796 800 806 811 817 818 817 819 823 825 825 826 827 828 830 833 833 834 836 837 837 835
751 754 757 757 760 763 765 767 767 768 770 769 771 775 775 777 779 782 786 789 792 797 797 803 808 810 813 815 815 818 821 822 822 823 826 826 828 831 832 832 832 834 832
759 760 762 762 765 767 769 769 770 772 773 775 776 777 779 782 781 785 788 789 792 795 798 802 804 806 811 812 814 817 820 819 820 820 821 824 827 828 828 830 831 831 830
765 766 766 769 769 769 772 772 770 773 773 776 778 779 781 781 783 786 789 790 792 794 798 799 803 806 809 811 812 815 816 818 818 821 822 821 822 823 823 824 826 828 826
774 773 771 774 774 775 775 775 773 774 776 780 780 781 782 783 787 790 791 790 790 791 793 796 800 804 806 806 808 809 814 816 817 819 821 821 820 819 821 821 821 823 823
778 777 777 777 778 778 779 779 778 779 779 781 781 784 785 786 786 791 793 791 792 790 792 794 798 800 803 804 806 806 810 812 814 817 819 818 821 820 820 819 819 818 816
780 779 779 779 780 780 781 780 780 782 783 783 785 784 785 786 786 789 789 789 789 790 791 794 796 797 799 801 804 807 808 811 812 813 813 815 816 821 817 815 818 819 816
783 781 780 779 779 781 783 784 783 783 783 784 786 785 784 786 785 786 786 786 789 788 789 790 793 794 793 796 800 802 805 807 810 809 813 813 811 816 814 812 810 816 812
783 782 781 783 782 783 783 783 782 784 786 783 784 783 783 784 785 785 784 784 785 785 787 789 789 790 790 791 793 797 800 804 802 805 808 812 811 806 811 810 809 809 810
784 782 784 785 783 783 783 784 784 782 782 782 782 783 781 780 782 781 779 779 779 781 780 781 783 783 785 785 786 791 794 795 798 802 804 802 807 802 804 806 807 807 807
783 783 785 786 785 785 784 784 781 781 782 782 781 780 779 777 777 776 776 777 778 778 776 776 775 777 778 780 780 784 786 784 792 796 793 800 798 800 800 799 800 804 803
788 785 784 783 782 782 782 782 782 782 780 780 779 778 776 775 773 772 773 772 773 774 774 772 772 772 775 775 777 779 780 780 782 787 790 791 795 794 794 791 795 796 797
790 789 787 784 783 782 782 781 780 779 778 778 776 775 775 774 771 769 769 768 767 768 769 769 768 767 769 771 773 773 773 774 776 779 782 786 787 789 787 787 791 789 793
785 784 784 784 783 782 781 780 779 778 777 775 774 773 772 770 768 765 764 764 764 764 763 762 762 762 763 764 765 764 765 768 771 774 777 779 781 782 782 782 783 785 790
785 785 784 782 781 780 779 778 777 777 775 774 772 771 770 768 766 764 762 761 760 759 758 758 757 757 757 758 757 758 760 761 765 768 771 774 775 775 777 778 779 782 786
782 782 781 780 779 779 778 778 776 775 773 771 769 768 767 765 763 763 762 761 759 757 756 754 753 753 753 754 754 755 757 758 760 763 766 768 769 770 772 774 777 779 782
781 781 781 780 780 779 777 776 775 773 772 770 768 766 765 764 762 762 760 759 758 757 755 754 753 752 753 754 754 755 756 757 758 759 761 763 765 767 768 770 773 775 777
778 778 778 777 777 776 775 774 773 772 770 768 767 766 764 762 761 760 759 758 756 755 754 753 752 753 753 753 754 755 755 755 756 757 759 761 762 763 765 766 769 771 773
775 774 774 774 774 773 773 772 771 770 768 766 765 763 762 760 759 758 757 756 755 754 753 752 751 751 751 751 751 752 753 753 754 756 757 758 760 762 762 763 765 767 768
772 772 771 771 770 770 769 768 767 766 764 763 761 760 759 758 757 756 755 753 752 751 751 750 749 749 749 748 748 749 750 751 752 754 756 757 758 759 760 761 762 762 764